User: anonymous   Login
Location: Unspecified
(0.0000°N, 0.0000°E)
Time: 08:14:05
(UTC+00:00)
Language:

COSMOS 2409 - Orbit

View from above orbital plane
View from above orbital plane
View from above satellite
View from above satellite

Ground track
Ground track

The orbit data is extracted from the following two-line orbital elements,

1 28380U 04028A   18054.72488138  .00000054  00000-0  39376-4 0  9995
2 28380  82.9634 162.1384 0040895  99.6927 260.8862 13.76050294682597
Epoch (UTC): 23 February 2018 17:23:49
Eccentricity: 0.0040895
inclination: 82.9634°
perigee height: 948 km
apogee height: 1008 km
right ascension of ascending node: 162.1384°
argument of perigee: 99.6927°
revolutions per day: 13.76050294
mean anomaly at epoch: 260.8862°
orbit number at epoch: 68259

The dashed part of the orbit path shows where the satellite is in the earth's shadow,  

DLR